Вернуться в каталог

SL-12 R/B(2)

АктивенGEO
NORAD 17972·ROCKET BODY·🇷🇺 Russia

Запущен May 11, 1987 с Baikonur Cosmodrome

Loading…

TLE

СвежийSource: Space-Track

Эпоха: Sep 14, 2026, 04:30 UTC

1 17972U 87040D   26257.18772377 -.00000133  00000-0  00000-0 0  9997
2 17972   7.5164 307.7423 0018009 322.5206  82.6949  1.03016049126950

Отслеживайте SL-12 R/B(2) в реальном времени с AllMySat

Download on the App Store